Flag for U.S.A. Weather past 2 weeks in Huntsville, Alabama, U.S.A.

Now
88 °F

Broken clouds.


Feels Like: 90 °F
Forecast: 64 / 85 °F
Wind: No wind

Location: Huntsville International / Jones Field

Current Time: Aug 1, 2014 at 5:31:38 PM

Latest Report: Aug 1, 2014 at 4:53 PM


Visibility: 10 mi

Pressure: 29.99 "Hg

Humidity: 46%

Dew point: 65 °F

Location of HuntsvilleLocation

Historic Weather in Huntsville — Graph

°F

Huntsville temperature yesterday

Maximum temperature yesterday: 84 °F (at 4:53 PM)
Minimum temperature yesterday: 67 °F (at 3:53 AM)
Average temperature yesterday: 75 °F

Past Weeks' High & Low Weather Summary

 TemperatureHumidityPressure
High93 °F (Jul 27, 1:53 PM)94% (Jul 18, 5:04 PM)30.12 "Hg (Jul 18, 5:04 PM)
Low57 °F (Jul 30, 4:53 AM)34% (Jul 29, 1:53 PM)29.89 "Hg (Jul 28, 2:53 AM)
Average76 °F73%30.01 "Hg
* Reported Jul 17 3:53 PM — Aug 1 3:53 PM, Huntsville, Weather by CustomWeather, © 2014

Note: Actual official high and low records may vary slightly from our data, if they occured in-between our weather recording intervals... More about our weather records

Advertising

Huntsville weather history for previous 24 hours

 ConditionsComfort  
Time TempWeatherWind HumidityBarometerVisibility
3:53 PM
Aug 1
86 °FBroken clouds.5 mph48%30.00 "Hg10 mi
2:53 PM84 °FBroken clouds.No wind53%30.01 "Hg10 mi
1:53 PM84 °FBroken clouds.3 mph53%30.03 "Hg10 mi
12:53 PM84 °FBroken clouds.3 mph53%30.03 "Hg10 mi
11:53 AM81 °FScattered clouds.8 mph60%30.05 "Hg10 mi
10:53 AM78 °FPartly sunny.3 mph66%30.06 "Hg10 mi
9:53 AM77 °FPartly sunny.7 mph69%30.07 "Hg10 mi
8:53 AM74 °FPartly sunny.6 mph74%30.06 "Hg10 mi
7:53 AM73 °FPassing clouds.6 mph76%30.05 "Hg7 mi
6:53 AM70 °FPassing clouds.No wind84%30.05 "Hg7 mi
5:53 AM68 °FPassing clouds.3 mph87%30.03 "Hg7 mi
4:53 AM67 °FClear.5 mph90%30.03 "Hg7 mi
3:53 AM66 °FClear.No wind90%30.02 "Hg8 mi
2:53 AM66 °FClear.No wind87%30.03 "Hg8 mi
1:53 AM68 °FClear.3 mph84%30.03 "Hg10 mi
12:53 AM68 °FClear.No wind84%30.04 "Hg10 mi
11:53 PM
Jul 31
70 °FPassing clouds.No wind81%30.05 "Hg10 mi
10:53 PM72 °FPassing clouds.3 mph73%30.04 "Hg10 mi
9:53 PM72 °FPassing clouds.3 mph76%30.04 "Hg10 mi
8:53 PM73 °FPassing clouds.5 mph69%30.03 "Hg10 mi
7:53 PM76 °FScattered clouds.5 mph62%30.03 "Hg10 mi
6:53 PM81 °FScattered clouds.3 mph53%30.03 "Hg10 mi
5:53 PM83 °FBroken clouds.3 mph46%30.03 "Hg10 mi
Weather by CustomWeather, © 2014

See weather overviewHow to use our weather pages